| time (UTC) | temp F | wind direction | speed MPH | gust MPH | rain 1hr in | rain 24hr in | rain mn in | humidity % | barometer mb |
| 20260505124717 | 72 | 184 | 6.0 | 0.0 | 0.00 | 1.11 | 0.00 | 31 | 905.1 |
| 20260505121717 | 76 | 131 | 11.0 | 0.0 | 0.00 | 1.11 | 0.00 | 27 | 905.1 |
| 20260505114717 | 77 | 111 | 13.0 | 0.0 | 0.00 | 1.11 | 0.00 | 24 | 904.8 |
| 20260505111717 | 77 | 128 | 15.0 | 0.0 | 0.00 | 1.11 | 0.00 | 23 | 904.8 |
| 20260505101717 | 74 | 153 | 12.0 | 0.0 | 0.00 | 1.11 | 0.00 | 27 | 905.6 |
| 20260505094717 | 73 | 124 | 11.0 | 0.0 | 0.00 | 1.11 | 0.00 | 28 | 905.9 |
| 20260505091717 | 71 | 127 | 11.0 | 0.0 | 0.00 | 1.11 | 0.00 | 30 | 906.2 |
| 20260505084717 | 68 | 139 | 7.0 | 0.0 | 0.00 | 1.11 | 0.00 | 34 | 906.4 |
| 20260505081717 | 65 | 121 | 9.0 | 0.0 | 0.00 | 1.11 | 0.00 | 40 | 906.9 |
| 20260505074717 | 61 | 128 | 9.0 | 0.0 | 0.00 | 1.11 | 0.00 | 45 | 907.1 |
| 20260505071717 | 60 | 163 | 11.0 | 0.0 | 0.00 | 1.11 | 0.00 | 48 | 907.3 |
| 20260505064717 | 55 | 134 | 9.0 | 0.0 | 0.00 | 1.11 | 0.00 | 56 | 907.6 |
| 20260505061717 | 51 | 108 | 6.0 | 0.0 | 0.00 | 1.11 | 0.00 | 62 | 907.9 |
| 20260505054717 | 49 | 97 | 7.0 | 0.0 | 0.00 | 1.11 | 0.00 | 67 | 907.8 |
| 20260505051717 | 47 | 0 | 0.0 | 0.0 | 0.00 | 1.11 | 0.00 | 66 | 908.1 |
| 20260505041717 | 47 | 121 | 5.0 | 0.0 | 0.00 | 1.11 | 0.00 | 64 | 908.1 |
| 20260505034717 | 47 | 151 | 3.0 | 0.0 | 0.00 | 1.11 | 0.00 | 63 | 908.1 |
| 20260505031717 | 48 | 124 | 3.0 | 0.0 | 0.00 | 1.11 | 0.00 | 63 | 908.3 |
| 20260505024717 | 48 | 122 | 5.0 | 0.0 | 0.00 | 1.11 | 0.00 | 62 | 908.5 |
| 20260505021717 | 49 | 0 | 0.0 | 0.0 | 0.00 | 1.11 | 0.00 | 61 | 908.7 |
| 20260505014717 | 50 | 149 | 1.0 | 0.0 | 0.00 | 1.11 | 0.00 | 60 | 908.8 |
| 20260505011717 | 51 | 129 | 3.0 | 0.0 | 0.00 | 1.11 | 0.00 | 58 | 908.9 |
| 20260505004717 | 52 | 0 | 0.0 | 0.0 | 0.00 | 1.11 | 0.00 | 57 | 909.1 |
| 20260505001717 | 53 | 0 | 0.0 | 0.0 | 0.00 | 1.11 | 0.00 | 57 | 909.4 |
| 20260504234717 | 53 | 0 | 0.0 | 0.0 | 0.00 | 1.11 | 0.00 | 56 | 909.6 |
| 20260504231717 | 54 | 0 | 0.0 | 0.0 | 0.00 | 1.11 | 0.00 | 54 | 909.8 |
| 20260504224717 | 55 | 0 | 0.0 | 0.0 | 0.00 | 1.11 | 0.00 | 52 | 909.9 |
| 20260504221717 | 56 | 0 | 0.0 | 0.0 | 0.00 | 1.11 | 0.00 | 50 | 910.1 |
| 20260504214717 | 57 | 0 | 0.0 | 0.0 | 0.00 | 1.11 | 0.00 | 48 | 910.2 |
| 20260504211717 | 58 | 0 | 0.0 | 0.0 | 0.00 | 1.11 | 0.00 | 47 | 910.3 |
| 20260504204717 | 59 | 234 | 3.0 | 0.0 | 0.00 | 1.11 | 0.00 | 45 | 910.4 |
| 20260504201717 | 61 | 273 | 3.0 | 0.0 | 0.00 | 1.11 | 0.00 | 42 | 910.3 |
| 20260504194717 | 62 | 0 | 0.0 | 0.0 | 0.00 | 1.11 | 0.00 | 41 | 910.2 |
| 20260504191717 | 64 | 136 | 1.0 | 0.0 | 0.00 | 1.11 | 0.00 | 39 | 910.0 |
| 20260504184717 | 66 | 0 | 0.0 | 0.0 | 0.00 | 1.11 | 0.00 | 36 | 909.8 |
| 20260504181717 | 68 | 0 | 0.0 | 0.0 | 0.00 | 1.11 | 0.00 | 33 | 909.8 |
| 20260504174717 | 69 | 0 | 0.0 | 0.0 | 0.00 | 1.11 | 0.00 | 31 | 909.6 |
| 20260504171717 | 71 | 280 | 6.0 | 0.0 | 0.00 | 1.11 | 0.00 | 26 | 909.5 |